Time,TemperatureF,DewpointF,PressureIn,WindDirection,WindDirectionDegrees,WindSpeedMPH,WindSpeedGustMPH,Humidity,HourlyPrecipIn,Conditions,Clouds,dailyrainin,SoftwareType,DateUTC
2017-04-28 00:02:00,59.0,57.2,29.87,North,0,1.0,2.0,94,0.00,,,0.00,meteohub,2017-04-28 04:02:00,
2017-04-28 00:07:00,59.0,57.2,29.87,North,0,2.0,2.0,94,0.00,,,0.00,meteohub,2017-04-28 04:07:00,
2017-04-28 00:12:00,59.0,57.2,29.87,NE,45,2.0,3.0,94,0.00,,,0.00,meteohub,2017-04-28 04:12:00,
2017-04-28 00:17:00,59.0,57.2,29.87,West,270,0.0,3.0,94,0.00,,,0.00,meteohub,2017-04-28 04:17:00,
2017-04-28 00:22:00,58.8,57.4,29.87,NW,315,2.0,3.0,95,0.00,,,0.00,meteohub,2017-04-28 04:22:00,
2017-04-28 00:27:00,58.8,57.4,29.87,NE,45,2.0,3.0,95,0.00,,,0.00,meteohub,2017-04-28 04:27:00,
2017-04-28 00:32:00,58.8,57.4,29.86,NE,45,1.0,3.0,95,0.00,,,0.00,meteohub,2017-04-28 04:32:00,
2017-04-28 00:37:00,58.8,57.4,29.86,North,0,1.0,3.0,95,0.00,,,0.00,meteohub,2017-04-28 04:37:00,
2017-04-28 00:42:00,58.8,57.4,29.86,NW,315,2.0,2.0,95,0.00,,,0.00,meteohub,2017-04-28 04:42:00,
2017-04-28 00:47:00,58.8,57.4,29.86,North,0,1.0,3.0,95,0.00,,,0.00,meteohub,2017-04-28 04:47:00,
2017-04-28 00:52:00,58.8,57.4,29.86,North,0,1.0,3.0,95,0.00,,,0.00,meteohub,2017-04-28 04:52:00,
2017-04-28 00:57:00,58.8,57.4,29.86,NNW,338,2.0,3.0,95,0.00,,,0.00,meteohub,2017-04-28 04:57:00,
2017-04-28 01:02:00,58.8,57.4,29.86,NW,315,1.0,2.0,95,0.00,,,0.00,meteohub,2017-04-28 05:02:00,
2017-04-28 01:07:00,58.8,57.4,29.86,North,0,2.0,2.0,95,0.00,,,0.00,meteohub,2017-04-28 05:07:00,
2017-04-28 01:12:00,58.8,57.0,29.86,SW,225,2.0,2.0,94,0.00,,,0.00,meteohub,2017-04-28 05:12:00,
2017-04-28 01:17:00,58.8,57.0,29.87,NE,45,2.0,2.0,94,0.00,,,0.00,meteohub,2017-04-28 05:17:00,
2017-04-28 01:22:00,58.8,57.0,29.86,NW,315,1.0,2.0,94,0.00,,,0.00,meteohub,2017-04-28 05:22:00,
2017-04-28 01:27:00,58.6,56.8,29.87,North,0,2.0,3.0,94,0.00,,,0.00,meteohub,2017-04-28 05:27:00,
2017-04-28 01:32:00,58.6,57.2,29.86,NW,315,2.0,3.0,95,0.00,,,0.00,meteohub,2017-04-28 05:32:00,
2017-04-28 01:37:00,58.6,57.2,29.86,NE,45,2.0,3.0,95,0.00,,,0.00,meteohub,2017-04-28 05:37:00,
2017-04-28 01:42:00,58.6,57.2,29.85,North,0,2.0,3.0,95,0.00,,,0.00,meteohub,2017-04-28 05:42:00,
2017-04-28 01:47:00,58.6,57.2,29.85,NW,315,2.0,3.0,95,0.00,,,0.00,meteohub,2017-04-28 05:47:00,
2017-04-28 01:52:00,58.6,57.2,29.86,North,0,2.0,3.0,95,0.00,,,0.00,meteohub,2017-04-28 05:52:00,
2017-04-28 01:57:00,58.6,57.2,29.86,NW,315,4.0,4.0,95,0.00,,,0.00,meteohub,2017-04-28 05:57:00,
2017-04-28 02:02:00,58.6,57.6,29.85,East,90,2.0,4.0,96,0.00,,,0.00,meteohub,2017-04-28 06:02:00,
2017-04-28 02:07:00,58.6,57.6,29.85,ENE,68,2.0,4.0,96,0.00,,,0.00,meteohub,2017-04-28 06:07:00,
2017-04-28 02:12:00,58.6,57.6,29.85,NE,45,2.0,4.0,96,0.00,,,0.00,meteohub,2017-04-28 06:12:00,
2017-04-28 02:17:00,58.6,57.7,29.86,NW,315,2.0,3.0,97,0.00,,,0.00,meteohub,2017-04-28 06:17:00,
2017-04-28 02:22:00,58.6,57.7,29.85,North,0,0.0,3.0,97,0.00,,,0.00,meteohub,2017-04-28 06:22:00,
2017-04-28 02:27:00,58.5,57.6,29.85,East,90,2.0,3.0,97,0.00,,,0.00,meteohub,2017-04-28 06:27:00,
2017-04-28 02:32:00,58.5,57.6,29.85,North,0,2.0,3.0,97,0.00,,,0.00,meteohub,2017-04-28 06:32:00,
2017-04-28 02:37:00,58.5,57.9,29.85,NE,45,2.0,3.0,98,0.00,,,0.00,meteohub,2017-04-28 06:37:00,
2017-04-28 02:42:00,58.5,57.9,29.86,NW,315,2.0,4.0,98,0.00,,,0.00,meteohub,2017-04-28 06:42:00,
2017-04-28 02:47:00,58.3,57.7,29.86,NW,315,2.0,4.0,98,0.00,,,0.00,meteohub,2017-04-28 06:47:00,
2017-04-28 02:52:00,58.3,57.9,29.86,North,0,3.0,3.0,99,0.00,,,0.00,meteohub,2017-04-28 06:52:00,
2017-04-28 02:57:00,58.1,57.7,29.85,NW,315,2.0,3.0,99,0.00,,,0.00,meteohub,2017-04-28 06:57:00,
2017-04-28 03:02:00,58.1,57.7,29.85,NW,315,2.0,3.0,99,0.00,,,0.00,meteohub,2017-04-28 07:02:00,
2017-04-28 03:07:00,57.9,57.6,29.86,NW,315,2.0,3.0,99,0.00,,,0.00,meteohub,2017-04-28 07:07:00,
2017-04-28 03:12:00,57.9,57.6,29.85,NE,45,2.0,4.0,99,0.00,,,0.00,meteohub,2017-04-28 07:12:00,
2017-04-28 03:13:00,57.7,57.4,29.86,NE,45,3.0,4.0,99,0.00,,,0.00,meteohub,2017-04-28 07:13:00,
2017-04-28 03:18:00,57.7,57.4,29.86,North,0,2.0,4.0,99,0.00,,,0.00,meteohub,2017-04-28 07:18:00,
2017-04-28 03:23:00,57.7,57.4,29.86,NW,315,1.0,4.0,99,0.00,,,0.00,meteohub,2017-04-28 07:23:00,
2017-04-28 03:28:00,57.7,57.4,29.86,NW,315,1.0,2.0,99,0.00,,,0.00,meteohub,2017-04-28 07:28:00,
2017-04-28 03:34:00,57.6,57.2,29.86,WNW,293,3.0,3.0,99,0.00,,,0.00,meteohub,2017-04-28 07:34:00,
2017-04-28 03:39:00,57.6,57.2,29.86,NW,315,2.0,4.0,99,0.00,,,0.00,meteohub,2017-04-28 07:39:00,